Weather History for New York, NY

Change the Weather History Date:

Friday, April 27, 2012

  Actual Average Record
Temperature  
Mean Temperature 51 °F 57 °F  
Max Temperature 58 °F 65 °F 89 °F (1990)
Min Temperature 43 °F 48 °F 38 °F (1946)
Degree Days  
Heating Degree Days 14 9  
Month to date heating degree days 257 353  
Since 1 July heating degree days 3497 4489  
Cooling Degree Days 0 0  
Month to date cooling degree days 19 0  
Year to date cooling degree days 19 0  
Moisture  
Dew Point 32 °F    
Average Humidity 61    
Maximum Humidity 86    
Minimum Humidity 35    
Precipitation  
Precipitation 0.02 in 0.13 in 1.85 in (2007)
Month to date precipitation 3.18 3.64  
Year to date precipitation 8.03 13.54  
Snow  
Snow 0.00 in 0.00 in - ()
Month to date snowfall 0.0 0.5  
Since 1 July snowfall 5.1 26.9  
Snow Depth 0.00 in    
Sea Level Pressure  
Sea Level Pressure 29.86 in    
Wind  
Wind Speed 20 mph (NW)    
Max Wind Speed 33 mph    
Max Gust Speed 40 mph    
Visibility 10 miles    
Events Rain    
T = Trace of Precipitation, MM = Missing Value Source: NWS Daily Summary

Daily Weather History Graph

Daily Weather History Graph

Search for Another Location

Airport:

Trip Planner

Search our weather history database for the weather conditions in past years. The results will help you decide how hot, cold, wet, or windy it might be!

Date:

Astronomy

Apr. 27, 2012 Rise Set
Actual Time 5:58 AM EDT 7:48 PM EDT
Civil Twilight 5:29 AM EDT 8:17 PM EDT
Nautical Twilight 4:53 AM EDT 8:53 PM EDT
Astronomical Twilight 4:15 AM EDT 9:32 PM EDT
Moon 10:33 AM EDT (4/27) 12:34 AM EDT (4/27)
Length of Visible Light 14h 48m
Length of Day
13h 49m
Waxing Crescent, 33% of the Moon is Illuminated
Apr 27
Waxing Crescent
Apr 29
First Quarter
May 5
Full
May 12
Last Quarter
May 20
New

Hourly Weather History & Observations

Time (EDT) Temp. Windchill Dew Point Humidity Pressure Visibility Wind Dir Wind Speed Gust Speed Precip Events Conditions
12:51 AM 57.0 °F - 54.0 °F 89% 29.58 in 4.0 mi SW 5.8 mph - 0.00 in   Overcast
1:26 AM 57.2 °F - 53.6 °F 88% 29.58 in 7.0 mi WNW 16.1 mph 21.9 mph 0.02 in Rain Light Rain
1:42 AM 55.4 °F - 48.2 °F 77% 29.60 in 10.0 mi NW 27.6 mph 38.0 mph 0.02 in   Overcast
1:51 AM 55.9 °F - 46.0 °F 69% 29.61 in 10.0 mi NW 20.7 mph 31.1 mph 0.02 in   Overcast
2:51 AM 53.1 °F - 42.1 °F 66% 29.63 in 10.0 mi NW 21.9 mph 32.2 mph N/A   Overcast
3:51 AM 50.0 °F - 35.1 °F 57% 29.69 in 10.0 mi WNW 28.8 mph 40.3 mph N/A   Mostly Cloudy
4:51 AM 48.9 °F - 34.0 °F 56% 29.71 in 10.0 mi NW 20.7 mph 27.6 mph N/A   Partly Cloudy
5:51 AM 48.9 °F - 32.0 °F 52% 29.75 in 10.0 mi WNW 18.4 mph 29.9 mph N/A   Partly Cloudy
6:51 AM 48.0 °F - 32.0 °F 54% 29.77 in 10.0 mi NW 24.2 mph 33.4 mph N/A   Partly Cloudy
7:51 AM 48.9 °F - 30.9 °F 50% 29.80 in 10.0 mi NW 20.7 mph 28.8 mph N/A   Partly Cloudy
8:51 AM 50.0 °F - 30.9 °F 48% 29.83 in 10.0 mi NW 15.0 mph - N/A   Mostly Cloudy
9:51 AM 50.0 °F - 30.0 °F 46% 29.84 in 10.0 mi WNW 20.7 mph 29.9 mph N/A   Scattered Clouds
10:51 AM 51.1 °F - 28.9 °F 43% 29.87 in 10.0 mi WNW 23.0 mph 36.8 mph N/A   Scattered Clouds
11:51 AM 50.0 °F - 30.0 °F 46% 29.90 in 10.0 mi NW 16.1 mph 29.9 mph N/A   Mostly Cloudy
12:51 PM 50.0 °F - 26.1 °F 39% 29.92 in 10.0 mi WNW 26.5 mph 34.5 mph N/A   Scattered Clouds
1:51 PM 51.1 °F - 24.1 °F 35% 29.94 in 10.0 mi WNW 25.3 mph 33.4 mph N/A   Scattered Clouds
2:51 PM 51.1 °F - 24.1 °F 35% 29.95 in 10.0 mi WNW 19.6 mph 32.2 mph N/A   Scattered Clouds
3:51 PM 48.9 °F - 26.1 °F 41% 29.96 in 10.0 mi NW 24.2 mph 35.7 mph N/A   Scattered Clouds
4:51 PM 48.9 °F - 25.0 °F 39% 29.98 in 10.0 mi NW 19.6 mph 31.1 mph N/A   Partly Cloudy
5:51 PM 48.9 °F - 26.1 °F 41% 30.01 in 10.0 mi NW 21.9 mph 31.1 mph N/A   Partly Cloudy
6:51 PM 48.0 °F - 25.0 °F 41% 30.02 in 10.0 mi NW 18.4 mph 28.8 mph N/A   Clear
7:51 PM 46.4 °F 38.7 °F 26.6 °F 46% 30.05 in 10.0 mi NW 20.7 mph 31.1 mph N/A   Partly Cloudy
8:51 PM 46.4 °F 39.5 °F 24.8 °F 43% 30.09 in 10.0 mi NW 17.3 mph 27.6 mph N/A   Clear
9:51 PM 45.0 °F 37.1 °F 25.0 °F 46% 30.12 in 10.0 mi NW 19.6 mph 24.2 mph N/A   Clear
10:51 PM 44.1 °F 36.2 °F 25.0 °F 47% 30.12 in 10.0 mi NW 18.4 mph 26.5 mph N/A   Clear
11:51 PM 44.1 °F 37.1 °F 26.1 °F 49% 30.15 in 10.0 mi NW 15.0 mph 23.0 mph N/A   Clear